Phoenix Deer Valley, AZ

2:20 PM MST on October 21, 2019 (GMT -0700)
Phoenix-Deer Valley Municipal

Weather History for KDVT - August, 2019

Change the Weather History Date:

Monday, August 5, 2019

  Actual Average Record
Temperature  
Mean Temperature 101 °F -  
Max Temperature 111 °F 100 °F 111 °F (2019)
Min Temperature 89 °F 81 °F 72 °F (2016)
Cooling Degree Days 36    
Growing Degree Days 51 (Base 50)    
Moisture  
Dew Point 57 °F    
Average Humidity 24    
Maximum Humidity 40    
Minimum Humidity 14    
Precipitation  
Precipitation 0.00 in - - ()
Sea Level Pressure  
Sea Level Pressure 29.82 in    
Wind  
Wind Speed 9 mph (SE)    
Max Wind Speed 28 mph    
Max Gust Speed 34 mph    
Visibility 10 miles    
Events      
Averages and records for this station are not official NWS values.
T = Trace of Precipitation, MM = Missing Value Source: NWS Daily Summary

Daily Weather History Graph

Daily Weather History Graph

Search for Another Location

Airport or City:

Astronomy

Aug. 05, 2019 Rise Set
Actual Time 5:43 AM MST 7:25 PM MST
Civil Twilight 5:16 AM MST 7:51 PM MST
Nautical Twilight 4:43 AM MST 8:24 PM MST
Astronomical Twilight 4:09 AM MST 8:58 PM MST
Moon 10:49 AM MST (8/5) 10:55 PM MST (8/5)
Length of Visible Light 14h 35m
Length of Day
13h 41m
Waxing Crescent, 29% of the Moon is Illuminated
Aug 5
Waxing Crescent
Aug 7
First Quarter
Aug 15
Full
Aug 23
Last Quarter
Aug 30
New

Hourly Weather History & Observations

Time (MST) Temp. Heat Index Dew Point Humidity Pressure Visibility Wind Dir Wind Speed Gust Speed Precip Events Conditions
12:53 AM - - - N/A% 29.83 in - North - - N/A   Unknown
1:53 AM - - - N/A% 29.82 in - North - - N/A   Unknown
2:53 AM - - - N/A% 29.83 in - North - - N/A   Unknown
3:53 AM - - - N/A% 29.84 in - North - - N/A   Unknown
4:53 AM - - - N/A% 29.85 in - North - - N/A   Unknown
5:53 AM - - - N/A% 29.86 in - North - - N/A   Unknown
6:53 AM 91.9 °F 91.2 °F 59.0 °F 33% 29.88 in 10.0 mi NE 5.8 mph - N/A   Clear
7:53 AM 95.0 °F 95.2 °F 61.0 °F 32% 29.89 in 10.0 mi East 6.9 mph - N/A   Clear
8:53 AM 98.1 °F 98.1 °F 60.1 °F 28% 29.89 in 10.0 mi East 4.6 mph - N/A   Clear
9:53 AM 100.0 °F 100.2 °F 59.0 °F 26% 29.90 in 10.0 mi South 5.8 mph - N/A   Clear
10:53 AM 104.0 °F 104.0 °F 57.9 °F 22% 29.88 in 10.0 mi South 4.6 mph - N/A   Clear
11:53 AM 107.1 °F 106.7 °F 57.0 °F 19% 29.86 in 10.0 mi South 5.8 mph - N/A   Clear
12:53 PM 109.0 °F 108.1 °F 55.9 °F 17% 29.84 in 10.0 mi West 8.1 mph - N/A   Clear
1:53 PM 111.0 °F 109.3 °F 54.0 °F 15% 29.81 in 10.0 mi SW 8.1 mph - N/A   Clear
2:53 PM 111.0 °F 109.3 °F 54.0 °F 15% 29.77 in 10.0 mi SW 12.7 mph - N/A   Clear
3:53 PM 111.9 °F 109.7 °F 53.1 °F 14% 29.75 in 10.0 mi West 6.9 mph 18.4 mph N/A   Clear
4:30 PM 109.0 °F 107.4 °F 54.0 °F 16% 29.77 in 10.0 mi NE 25.3 mph 32.2 mph N/A   Clear
4:53 PM 102.0 °F 101.1 °F 55.9 °F 22% 29.78 in 10.0 mi NE 15.0 mph 33.4 mph N/A   Clear
6:53 PM 99.0 °F 96.9 °F 54.0 °F 22% 29.72 in 10.0 mi NNE 27.6 mph 34.5 mph N/A   Clear
7:53 PM 99.0 °F - 50.0 °F 19% 29.72 in 10.0 mi NNE 17.3 mph 27.6 mph N/A   Clear
8:53 PM 98.1 °F - 50.0 °F 20% 29.75 in 10.0 mi SSE 5.8 mph - N/A   Clear
9:53 PM 93.0 °F 92.3 °F 59.0 °F 32% 29.81 in 10.0 mi SSE 10.4 mph - N/A   Clear
10:53 PM 91.0 °F 91.5 °F 62.1 °F 38% 29.82 in 10.0 mi SE 8.1 mph - N/A   Clear
11:53 PM 89.1 °F 89.3 °F 62.1 °F 40% 29.81 in 10.0 mi East 8.1 mph - N/A   Clear